User: anonymous   Login
Location: Unspecified
(0.0000°N, 0.0000°E)
Time: 11:43:18
(UTC+01:00)
Language:

Cosmos 1980 Rocket - Orbit

View from above orbital plane
View from above orbital plane
View from above satellite
View from above satellite

Ground track
Ground track

The orbit data is extracted from the following two-line orbital elements,

1 19650U 88102B   17015.32388849 -.00000216  00000-0 -85830-4 0  9998
2 19650  71.0009 336.5224 0012321  48.6852 311.5329 14.15752812454358
Epoch (UTC): 15 January 2017 07:46:23
Eccentricity: 0.0012321
inclination: 71.0009°
perigee height: 831 km
apogee height: 848 km
right ascension of ascending node: 336.5224°
argument of perigee: 48.6852°
revolutions per day: 14.15752812
mean anomaly at epoch: 311.5329°
orbit number at epoch: 45435

The dashed part of the orbit path shows where the satellite is in the earth's shadow,  

DLR